www.pogodaiklimat.ru

Погода и климат >> Архив погоды >> Россия >> Хакасия >> Таштып


ПОГОДА в Таштыпе

  • Прогноз погоды в Таштыпе
  • Монитор погоды в Таштыпе

АРХИВ ПОГОДЫ в Таштыпе

Время (UTC), дата Ветер
(напр.,м/с)
 
Видим.   Явления Облачность Т
(С)
Тd
(С)
f
(%)
Тe
(С)
Тes
(С)
Комфортность P
(гПа)
Po
(гПа)
Тmin
(С)
Tmax
(С)
R
(мм)
R24
(мм)
S
(см)
15 14.08 штиль 0 21 км слаб. ливневой дождь 10/10 1000 м
[Cb cap]
+15.1 +12.5 84 +15 +15 1012.2 960.1
18 14.08 ЮЗ 1 21 км слаб. ливневой дождь 10/10 1000 м
[Cb cap]
+14.2 +12.8 91 +14 +14 1012.6 960.3
21 14.08 В 2 21 км {ливн. осадки} 10/10 1140 м
[Cb cap]
+13.3 +12.5 95 +12 +12 1012.3 959.8
00 15.08 штиль 0 50 км {ливн. осадки} 8/0
[Ac trans Ci fib]
+12.7 +12.1 96 +12 +13 1011.9 959.3 +12.4 0.8
03 15.08 штиль 0 50 км 10/0
[Ac trans Ci fib]
+18.5 +13.0 70 +19 +26 1010.2 958.7
06 15.08 В 1 50 км 10/1 1000 м
[Cu med, cong Ci fib]
+23.5 +15.8 62 +27 +38 душно 1007.9 957.5
09 15.08 СВ 3 50 км 9/3 1000 м
[Cu med, cong Ci fib]
+25.8 +15.0 51 +29 +32 душно 1006.6 956.6
12 15.08 СВ 2 50 км 6/3 1000 м
[Cu Sc Ac trans Ci fib]
+24.0 +15.8 60 +27 +28 жарко 1006.6 956.3 +25.9
15 15.08 С 2 50 км 3/0
[Ac trans]
+18.2 +15.1 82 +19 +19 1008.5 957.1
18 15.08 ЮЗ 1 21 км 10/0
[Cs]
+14.0 +13.3 96 +14 +14 1008.8 956.6
21 15.08 штиль 0 4800 м дымка 10/0
[Cs]
+13.3 +12.6 96 +13 +13 1008.0 955.7
00 16.08 ЮЗ 1 10 км 10/0
[Ac As]
+13.6 +12.9 96 +14 +14 1006.8 954.6 +12.8
03 16.08 Ю 1 4000 м слаб. ливневой дождь 10/10 1000 м
[Cb cap]
+15.3 +14.6 96 +16 +16 1007.2 955.4
06 16.08 З 4 4000 м слаб. ливневой дождь 10/10 1000 м
[Cb cap]
+13.9 +13.3 96 +12 +12 1008.8 956.7
09 16.08 З 3 10 км {ливн. осадки} 10/10 1140 м
[Cb cap]
+16.1 +14.9 93 +16 +16 1009.5 957.7
12 16.08 З 2 20 км {ливн. осадки} 10/10 1170 м
[Cb cap]
+16.5 +13.3 81 +17 +17 1010.5 958.7 +18.0 36
15 16.08 З 3 50 км 10/10 1140 м
[Cb cap]
+14.0 +12.5 91 +13 +13 1011.7 959.3
18 16.08 ЮЗ 1 50 км 6/6 1140 м
[Cb cap]
+12.4 +11.5 94 +12 +12 1012.6 959.9
21 16.08 З 2 50 км 3/3 1000 м
[Cb cap]
+10.7 +9.8 94 +9 +9 1012.6 959.6
00 17.08 З 2 50 км 4/0
[Ac trans Ci fib]
+11.1 +10.2 94 +10 +10 1013.6 960.6 +9.8
03 17.08 ЮЗ 2 50 км ясно +18.0 +13.0 73 +19 +26 1012.4 960.7
06 17.08 З 2 50 км 5/5 1000 м
[Cu med, cong]
+23.1 +11.6 48 +25 +32 комфорт 1011.0 960.2
09 17.08 С 2 50 км 8/5 1000 м
[Cu med, cong Ci fib]
+23.6 +10.9 45 +25 +28 комфорт 1010.3 959.7
12 17.08 СВ 2 50 км 9/4 1000 м
[Cu Sc Ac trans Ci]
+20.3 +14.4 69 +23 +24 комфорт 1011.2 960.1 +25.8
15 17.08 СВ 1 50 км 10/0
[Ac trans Cs]
+16.3 +13.2 82 +17 +17 1013.2 961.2
18 17.08 штиль 0 50 км ясно +10.9 +10.0 94 +10 +10 1014.2 961.1
21 17.08 ЮЗ 1 500 м туман ?/? +10.7 +10.1 96 +10 +10 1014.1 961.0
00 18.08 штиль 0 н/о н/о +11.6 +11.1 97 +11 +11 1013.5 960.6 +9.7
03 18.08 штиль 0 500 м туман ?/? +13.6 +13.0 96 +13 +13 1013.1 960.6
06 18.08 В 3 50 км {туман} 8/5 1000 м
[Cu med, cong Ci fib]
+20.4 +14.0 67 +23 +28 комфорт 1010.4 959.3
09 18.08 С 2 10 км гроза, ливневой дождь 10/10 1000 м
[Cb cap]
+19.3 +12.4 64 +21 +21 комфорт 1010.5 959.2
12 18.08 ЮЗ 1 50 км {гроза, ливн. осадки} 6/3 1000 м
[Cu Sc Ac trans Ci fib]
+16.1 +13.4 84 +17 +17 1012.3 960.4 +21.8 0.4
15 18.08 З 2 30 км в посл. час ливневой дождь 8/8 1170 м
[Cb cap]
+14.0 +13.0 94 +13 +13 1014.5 962.0
18 18.08 З 2 50 км {ливн. осадки} 8/8 1200 м
[Cb cap]
+12.3 +11.5 95 +11 +11 1016.0 963.2
21 18.08 ЮЗ 2 50 км 6/4 1000 м
[Cb cap Ac trans]
+10.7 +10.0 95 +9 +9 1016.9 963.7
00 19.08 З 2 20 км 8/8 1140 м
[Cb cap]
+12.2 +11.2 94 +11 +11 1018.0 965.0 +10.5 3
03 19.08 ЮЗ 2 10 км 10/10 1140 м
[Cb cap]
+16.8 +13.7 82 +17 +17 1018.1 965.9
06 19.08 З 3 10 км 10/4 1000 м
[Cb cap Cs]
+21.5 +12.2 55 +24 +29 комфорт 1016.6 965.3
09 19.08 З 2 20 км 8/1 1000 м
[Cu med, cong Cs]
+23.6 +7.6 36 +24 +30 комфорт 1015.7 964.7
12 19.08 ЮЗ 1 20 км 10/0
[Ac As]
+20.3 +14.0 67 +24 +24 комфорт 1016.0 964.6 +23.9
15 19.08 ЮЗ 2 18 км 10/0
[Ac As]
+15.7 +11.9 78 +16 +16 1017.6 965.3
18 19.08 ЮЗ 2 23 км 10/10 1200 м
[Cb cap]
+14.4 +12.5 88 +14 +14 1017.6 965.0
21 19.08 ЮЗ 1 17 км 9/9 1170 м
[Cb cap]
+13.0 +11.6 91 +13 +13 1016.8 964.0
00 20.08 ЮЗ 1 20 км 9/0
[Ac trans]
+12.2 +11.3 94 +12 +12 1016.4 963.5 +11.8
03 20.08 ЮЗ 1 50 км 8/0
[Ac trans Ci fib]
+15.6 +13.1 85 +16 +22 1014.5 962.3
06 20.08 СЗ 2 50 км 9/5 1000 м
[Cu med, cong Ci sp]
+22.7 +12.7 53 +25 +31 комфорт 1012.0 961.1
09 20.08 ЮЗ 3
{10}
4000 м гроза, ливневой дождь 10/10 1000 м
[Cb cap]
+15.0 +14.1 94 +14 +14 1014.0 961.8
12 20.08 З 4
{10}
20 км {гроза, ливн. осадки} 9/9 1080 м
[Cb cap]
+16.3 +13.0 81 +16 +16 1015.5 963.3 +23.6 9
15 20.08 ЮЗ 3 21 км 10/10 1140 м
[Cb cap]
+14.3 +12.2 87 +13 +13 1017.4 964.8
18 20.08 ЮЗ 1 20 км 10/10 1170 м
[Cb cap]
+12.6 +10.9 89 +13 +13 1018.4 965.4
21 20.08 З 1 24 км 10/10 1170 м
[Cb cap]
+10.7 +9.8 94 +10 +10 1018.2 964.9
00 21.08 З 1 500 м туман ясно +8.9 +8.3 96 +8 +9 1018.6 965.0 +8.6
03 21.08 ЮЗ 1 20 км в посл. час туман 4/0
[Ci fib]
+14.9 +13.1 89 +15 +23 1016.8 964.4
06 21.08 З 2 50 км {туман} 6/3 1000 м
[Cu med, cong Ci fib]
+20.6 +8.7 46 +23 +30 комфорт 1013.7 962.4
09 21.08 Ю 1 50 км 6/3 1000 м
[Cu med, cong Ci fib]
+20.9 +8.5 45 +23 +29 комфорт 1013.0 961.8
12 21.08 В 2 50 км 6/3 1000 м
[Cu med, cong Ci fib]
+19.7 +10.6 56 +22 +22 комфорт 1012.8 961.4 +22.6

 

Местоположение метеостанции Таштып (Хакасия, Россия): широта 52.80 долгота 89.88 высота над уровнем моря 450 м.

В архиве по умолчанию представлена погода в Таштыпе за последнюю неделю. Архивные данные за месяц целиком и за предыдущие месяцы, начиная с января 2011 года, Вы можете получить, выбрав интересующий диапазон дат из раскрывающегося списка и нажав кнопку "Ввод!".


*Определитесь, кто Вы:
робот инопланетянин человек

Внимание! Время в таблицах - всемирное. Для получения местного времени необходимо прибавить поправку, которая равна 7 ч.

Смотрите также архив погоды в соседних городах и на ближайших метеорологических станциях:

Погода в Мантуре (Хакасия, Россия) (32 км)
Погода в Аскизе (Хакасия, Россия) (54 км)
Погода в Бее (Хакасия, Россия) (75 км)
Погода в Неожиданном (Хакасия, Россия) (76 км)
Погода в Большом Оне (Хакасия, Россия) (83 км)
Погода в Кантегире (Хакасия, Россия) (86 км)
Погода в Усть-Кабырзе (Кемеровская область, Россия) (96 км)
Погода в Карловом Створе (Хакасия, Россия) (100 км)
Погода в Черемушках (Хакасия, Россия) (101 км)
Погода в Уйбате (Хакасия, Россия) (107 км)

Пояснения к столбцам:

Ветер - указаны скорость ветра в м/с - средняя за 10 мин, порывы в срок и между сроками (в фигурных скобках) и направление, откуда дует ветер: С - северный, СВ - северо-восточный, В - восточный, ЮВ - юго-восточный, Ю - южный, ЮЗ - юго-западный, З - западный, СЗ - северо-западный.
Видимость - горизонтальная дальность видимости в метрах или километрах. При видимости от 1 до 10 км при отсутствии осадков обычно наблюдается дымка, при ухудшении видимости до 1 км и менее - туман. В сухую погоду видимость может ухудшаться дымом, пылью или мглою.
Явления - указаны атмосферные явления, наблюдавшиеся в срок или в последний час перед сроком; фигурными скобками обозначены явления, наблюдавшиеся между сроками (за 1-3 часа до срока); квадратными скобками обозначены град или гололедные отложения с указанием их диаметра в мм.
Облачность - указаны через наклонную черту общая и нижняя облачность в баллах и высота нижней границы облаков в метрах; квадратными скобками обозначены формы облаков: Ci - перистые, Cs - перисто-слоистые, Cc - перисто-кучевые, Ac - высококучевые, As - высокослоистые, Sc - слоисто-кучевые, Ns - слоисто-дождевые, Cu - кучевые, Cb - кучево-дождевые. Подробнее классификацию облаков см. в Атласе облаков (PDF).
T - Температура воздуха - температура, измеренная на высоте 2 м над землей.
Td - Температура точки росы - температура, при понижении до которой содержащийся в воздухе водяной пар достигнет насыщения.
f - Относительная влажность воздуха - влажноcть воздуха, измеренная на высоте 2 м над землей.
Te - Эффективная температура - температура, которую ощущает одетый по сезону человек в тени. Характеристика душности погоды. При расчете учитывается влияние влажности воздуха и скорости ветра на теплоощущения человека.
Tes - Эффективная температура на солнце - температура, которую ощущает человек, с поправкой на солнечный нагрев. Характеристика знойности погоды. Зависит от высоты солнца над горизонтом, облачности и скорости ветра. Ночью, в пасмурную погоду, а также при ветре 12 м/с и более поправка равна нулю.
P - Атмосферное давление - приведенное к уровню моря атмосферное давление.
Po - Атмосферное давление - измеренное на уровне метеостанции атмосферное давление.
Tmin - Минимальная температура - минимум температуры воздуха на высоте 2 м над землей.
Tmax - Максимальная температура - максимум температуры воздуха на высоте 2 м над землей.
R - Количество осадков - Количество выпавших осадков за период времени, мм. При наведении курсора мыши на число - период времени, за который выпало указанное количество осадков.
R24 - Количество осадков - Количество выпавших осадков за 24 часа, мм.
S - Снежный покров - Высота снежного покрова, см. При наведении курсора мыши на число - состояние снежного покрова и степень покрытия местности в баллах.